Miscellaneous Local Product
Issued by NWS Hastings, NE

Home | Current Version | Previous Version | Text Only | Print | Product List | Glossary Off
Versions: 1 2 3 4 5 6 7 8 9 10 11 12 13 14 15 16 17 18 19 20 21 22 23 24 25 26 27 28 29 30 31 32 33 34 35 36 37 38 39 40 41 42 43 44 45 46 47 48 49 50

027
AXUS43 KGID 211902
MISGRI

GID CWA HOURLY WEATHER ROUNDUP
NATIONAL WEATHER SERVICE HASTINGS NE
200 PM CDT MON MAY 21 2018

NOTE: "FAIR" INDICATES FEW OR NO CLOUDS BELOW 12,000 FEET WITH NO
SIGNIFICANT WEATHER AND/OR OBSTRUCTIONS TO VISIBILITY.

...SOUTH CENTRAL NEBRASKA...

CITY           SKY/WX    TMP DP  RH WIND       PRES   REMARKS
GRAND ISLAND   MOSUNNY   70  55  59 S9G18     30.05F
KEARNEY        SUNNY     68  55  63 S14       30.04F
HASTINGS       SUNNY     69  55  60 S8        30.06F
ORD            SUNNY     69  54  58 VRB5G17   30.01F
YORK           PTSUNNY   68  57  68 W6        30.06S
AURORA         MOSUNNY   68  54  60 SW9       30.05F
LEXINGTON      CLOUDY    68  58  70 S12       30.03F
HOLDREGE       SUNNY     68  56  64 S10G22    30.04F
HEBRON         SUNNY     73  54  50 CALM      30.05F

...NEBRASKA PANHANDLE...

CITY           SKY/WX    TMP DP  RH WIND       PRES   REMARKS
CHADRON        SUNNY     73  55  53 S8        29.94F
ALLIANCE       MOSUNNY   65  54  67 SE9G17    29.99F
SCOTTSBLUFF    SUNNY     68  56  65 E7        29.98F
SIDNEY         MOSUNNY   67  53  61 SE9       30.02S

...WESTERN AND NORTH CENTRAL NEBRASKA...

CITY           SKY/WX    TMP DP  RH WIND       PRES   REMARKS
VALENTINE      SUNNY     73  48  41 S9        29.98F
AINSWORTH      SUNNY     70  50  49 S9        29.99F
ONEILL         SUNNY     71  50  47 SW9       30.01F
BROKEN BOW     MOSUNNY   69  54  58 S13G24    30.01F
IMPERIAL       PTSUNNY   72  55  55 S13G23    30.00F
NORTH PLATTE   MOSUNNY   73  59  61 S14G24    30.00F
MCCOOK         SUNNY     75  58  55 S17G28    29.99F

...EASTERN NEBRASKA...

CITY           SKY/WX    TMP DP  RH WIND       PRES   REMARKS
NORFOLK        MOSUNNY   69  52  54 VRB7      30.01F
SO SIOUX CITY  CLOUDY    64  56  75 CALM      30.02F
TEKAMAH        CLOUDY    64  57  78 W6        30.03F
COLUMBUS       SUNNY     70  55  59 SW7       30.03F
ALBION         SUNNY     70  53  55 W8        30.03S
OMAHA EPPLEY   PTSUNNY   67  56  67 W5        30.03F
OFFUTT AFB     MOSUNNY   67  58  72 W8        30.03F
MILLARD        PTSUNNY   67  58  73 NW7       30.04F
LINCOLN        SUNNY     71  55  56 VRB3      30.04F
NEBRASKA CITY  MOSUNNY   69  59  71 NW5G16    30.04F
BEATRICE       SUNNY     73  56  56 W6        30.05S
FALLS CITY     SUNNY     73  56  54 SW8       30.03F

...NORTHERN KANSAS...

CITY           SKY/WX    TMP DP  RH WIND       PRES   REMARKS
GOODLAND       MOSUNNY   73  57  57 S17G35    30.01F
HILL CITY      SUNNY     74  58  57 S14       30.03F
NORTON         CLEAR     75  55  50 S17G23    30.02F
PHILLIPSBURG   SUNNY     75  55  50 S12G20    30.04F
SMITH CENTER     N/A     72  54  53 S13G18    30.05F
HAYS           MOSUNNY   75  57  53 S13G18    30.04F
RUSSELL        MOSUNNY   74  58  57 S13       30.04F
CONCORDIA      SUNNY     71  54  54 SW6       30.05F
SALINA         SUNNY     73  57  57 S5        30.07F
TOPEKA         SUNNY     69  58  67 W7        30.06F



USA.gov is the U.S. government's official web portal to all federal, state and local government web resources and services.